Voltar ao catálogo

SOLIDARIDAD 2

AtivoComunicaçõesGEO
NORAD 23313·PAYLOAD·🇲🇽 Mexico

Lançado Oct 8, 1994 de Guiana Space Centre

Loading…

TLE

AtualizadoSource: Space-Track

Época: Sep 14, 2026, 13:54 UTC

1 23313U 94065A   26257.57917436 -.00000098  00000-0  00000-0 0  9998
2 23313  12.4886  30.5559 0000423   1.4875 190.9335  0.98865884116222

Acompanhe SOLIDARIDAD 2 em tempo real com AllMySat

Download on the App Store